{"data":{"norad_id":59545,"intl_designator":"2024-074M","name":"STARLINK-31582","alt_names":[],"object_type":"PAYLOAD","status":"ACTIVE","operator":null,"country":"US","launch_date":"2024-04-18","launch_site_code":"AFETR","launch_vehicle":null,"mission":null,"orbit_class":"UNKNOWN","rcs_meters":null,"size_class":null,"mass_kg":null,"dimensions":null,"purposes":["comms"],"wikipedia_slug":null,"has_3d_model":false,"image_url":null,"decayed_at":null,"tle_current":{"epoch":"2026-09-21T14:33:59.251392Z","epoch_age_seconds":72576,"freshness":"FRESH","line1":"1 59545U 24074M   26264.60693578  .00000765  00000+0  37330-4 0  9996","line2":"2 59545  43.0029 317.4001 0000968 246.2035 113.8716 15.27577164135976","mean_motion":15.27577164,"eccentricity":9.68e-5,"inclination_deg":43.0029,"raan_deg":317.4001,"arg_perigee_deg":246.2035,"mean_anomaly_deg":113.8716,"bstar":3.733e-5,"rev_number":13597,"period_min":94.266923723141,"perigee_km":482.39342442091,"apogee_km":483.72175169316,"semimajor_km":6861.194588057,"source":"CELESTRAK","updated_at":"2026-09-22T09:00:48.973290Z"}}}